"Pseudo-MPEC" for CEJGF72

Created 2026 Apr 16 23:35:08 UT using Find_Orb

Click here for an explanation of pseudo-MPECs

 
 Astrometry: 
     CEJGF72*1C2026 04 16.30852613 25 34.230+06 24 09.43   ~4G85 20.45GVNEOCPG96
     CEJGF72 1C2026 04 16.31366913 25 35.389+06 23 58.78   ~4G85       VNEOCPG96
     CEJGF72 1C2026 04 16.31883013 25 36.469+06 23 49.31   ~4G85 21.31GVNEOCPG96
     CEJGF72 1C2026 04 16.32397713 25 37.538+06 23 39.77   ~4G85 21.47GVNEOCPG96
     CEJGF72  C2026 04 16.33794613 25 39.598+06 23 05.18   ~4G8o 21.1 GWNEOCPH01
     CEJGF72  C2026 04 16.34329813 25 40.747+06 22 54.86   ~4G8o 21.0 GWNEOCPH01
     CEJGF72  C2026 04 16.35169013 25 42.563+06 22 38.50   ~4G8o 21.2 GWNEOCPH01
     CEJGF72  C2026 04 16.35878313 25 44.110+06 22 24.59   ~4G8o 21.1 GWNEOCPH01

Station data:
(G96) Mt. Lemmon Survey  (N32.442729 W110.788720)  US/Arizona.  Observer E.
   J. Christensen. Measurers T. Beuden, V. F. Carvajal, D. Fay, J. B.
   Fazekas, D. C. Fuls, A. R. Gibbs, A. D. Grauer, H. Gröller, J. K. Hogan,
   R. A. Kowalski, S. M. Larson, G. J. Leonard, D. Rankin, R. L. Seaman, F.
   C. Shelly, K. W. Wierzchoś. 1.5-m reflector + 10K CCD.
(H01) Magdalena Ridge Observatory, Socorro  (N33.984833 W107.189333)  US/New
   Mexico.  Observers W. H. Ryan, E. V. Ryan. Measurer W. H. Ryan. 2.4-m
   f/8.9 reflector + CCD.

Orbital elements:  CEJGF72
   Perihelion 2026 Feb 18.358256 +/- 16.3 TT =  8:35:53.2 (JD 2461089.858256)
Epoch 2026 Apr 16.0 TT = JDT 2461146.5   Earth MOID: 0.0000   Ve: 0.0603
M  33.639523156 +/- 33              (J2000 ecliptic)             AutoNEOCP
n   0.593899843 +/- 0.427           Peri.  270.592533 +/- 11
a   1.401717757 +/- 0.672           Node   202.605529 +/- 2.7
e   0.53010443 +/- 0.391            Incl.    7.527537 +/- 6
P   1.660/606.151d         H 28.04  G  0.15   U 12.2
q 0.658660962 +/- 0.233    Q 2.144774552 +/- 1.58
From 8 observations 2026 Apr. 16 (72.4 min); mean residual 0".25
Residuals in arcseconds: 
260416 G96  .49-  .19+    260416 G96  .15-  .34+    260416 H01  .07-  .00     
260416 G96  .46+  .53-    260416 H01  .08+  .10+    260416 H01  .01-  .20-    
260416 G96  .20+  .05-    260416 H01  .03-  .14+    

Ephemerides (geocentric):
Date (UTC) HH   RA             Dec           delta  r     elong  mag " sig PA
---- --------  ------------   ------------  ------ ------ -----  --- --------
2026 04 17 00  13 28 36.519   +06 07 27.91  .03615 1.0384 163.4 21.8  430 111
2026 04 17 01  13 28 45.445   +06 06 31.47  .03653 1.0388 163.4 21.8  480 111
2026 04 17 02  13 28 54.187   +06 05 36.11  .03692 1.0392 163.4 21.8  532 111
2026 04 17 03  13 29 02.750   +06 04 41.78  .03730 1.0395 163.4 21.8  586 111
2026 04 17 04  13 29 11.141   +06 03 48.46  .03768 1.0399 163.4 21.9  642 111
2026 04 17 05  13 29 19.364   +06 02 56.12  .03806 1.0403 163.4 21.9  700 111
2026 04 17 06  13 29 27.424   +06 02 04.72  .03844 1.0407 163.4 21.9  760 111
2026 04 17 07  13 29 35.326   +06 01 14.24  .03882 1.0410 163.4 21.9  821 111
2026 04 17 08  13 29 43.075   +06 00 24.65  .03920 1.0414 163.4 22.0  884 111
2026 04 17 09  13 29 50.675   +05 59 35.93  .03958 1.0418 163.4 22.0  948 111
2026 04 17 10  13 29 58.131   +05 58 48.05  .03996 1.0422 163.4 22.0 1014 111
2026 04 17 11  13 30 05.446   +05 58 00.98  .04035 1.0426 163.4 22.0 1081 112
2026 04 17 12  13 30 12.624   +05 57 14.70  .04073 1.0429 163.4 22.0 1150 112
2026 04 17 13  13 30 19.670   +05 56 29.19  .04111 1.0433 163.4 22.1 1220 112
2026 04 17 14  13 30 26.587   +05 55 44.43  .04149 1.0437 163.4 22.1 1291 112
2026 04 17 15  13 30 33.379   +05 55 00.40  .04187 1.0441 163.4 22.1 1364 112
2026 04 17 16  13 30 40.048   +05 54 17.07  .04225 1.0444 163.4 22.1 1437 112
2026 04 17 17  13 30 46.599   +05 53 34.43  .04263 1.0448 163.4 22.1 1512 112
2026 04 17 18  13 30 53.034   +05 52 52.46  .04302 1.0452 163.4 22.2 1588 112
2026 04 17 19  13 30 59.356   +05 52 11.14  .04340 1.0456 163.4 22.2 1665 112
2026 04 17 20  13 31 05.569   +05 51 30.45  .04378 1.0460 163.4 22.2 1742 112
2026 04 17 21  13 31 11.675   +05 50 50.38  .04416 1.0463 163.4 22.2 1821 112
2026 04 17 22  13 31 17.677   +05 50 10.91  .04454 1.0467 163.3 22.2 1901 112
2026 04 17 23  13 31 23.578   +05 49 32.02  .04493 1.0471 163.3 22.3 1981 112
2026 04 18 00  13 31 29.380   +05 48 53.70  .04531 1.0475 163.3 22.3 2063 112
2026 04 18 01  13 31 35.086   +05 48 15.93  .04569 1.0478 163.3 22.3 2145 112
2026 04 18 02  13 31 40.698   +05 47 38.71  .04607 1.0482 163.3 22.3 2228 112
2026 04 18 03  13 31 46.219   +05 47 02.01  .04645 1.0486 163.3 22.3 2311 112
2026 04 18 04  13 31 51.650   +05 46 25.82  .04684 1.0490 163.3 22.4 2396 112
2026 04 18 05  13 31 56.994   +05 45 50.13  .04722 1.0493 163.3 22.4 2481 112
2026 04 18 06  13 32 02.254   +05 45 14.93  .04760 1.0497 163.3 22.4 2566 112
2026 04 18 07  13 32 07.430   +05 44 40.20  .04798 1.0501 163.3 22.4 2652 112
2026 04 18 08  13 32 12.525   +05 44 05.93  .04837 1.0505 163.3 22.4 2739 112
2026 04 18 09  13 32 17.542   +05 43 32.12  .04875 1.0509 163.3 22.5 2826 112
2026 04 18 10  13 32 22.481   +05 42 58.75  .04913 1.0512 163.3 22.5 2914 112
2026 04 18 11  13 32 27.345   +05 42 25.81  .04951 1.0516 163.2 22.5 3003 112
2026 04 18 12  13 32 32.135   +05 41 53.28  .04990 1.0520 163.2 22.5 3092 112
2026 04 18 13  13 32 36.854   +05 41 21.17  .05028 1.0524 163.2 22.5 3181 112
2026 04 18 14  13 32 41.502   +05 40 49.46  .05066 1.0527 163.2 22.5 3271 112
2026 04 18 15  13 32 46.081   +05 40 18.13  .05104 1.0531 163.2 22.6 3361 112
2026 04 18 16  13 32 50.593   +05 39 47.19  .05143 1.0535 163.2 22.6 3451 112
2026 04 18 17  13 32 55.040   +05 39 16.62  .05181 1.0539 163.2 22.6 3542 112
2026 04 18 18  13 32 59.423   +05 38 46.41  .05219 1.0543 163.2 22.6 3633 112
2026 04 18 19  13 33 03.742   +05 38 16.56  .05258 1.0546 163.2 22.6 3725 112
2026 04 18 20  13 33 08.001   +05 37 47.06  .05296 1.0550 163.2 22.6 3817 112
2026 04 18 21  13 33 12.199   +05 37 17.89  .05334 1.0554 163.2 22.7 3909 112
2026 04 18 22  13 33 16.339   +05 36 49.06  .05373 1.0558 163.1 22.7 4002 112
2026 04 18 23  13 33 20.421   +05 36 20.55  .05411 1.0561 163.1 22.7 4094 112